AU224 Weather Reports


time (UTC)temp
C
wind
direction
speed
KPH
gust
KPH
rain 1hr
cm
rain 24hr
cm
rain mn
cm
humidity
%
barometer
mb
20260507113043 12 300 11.3 16.1 0.00 0.03 0.00 67 1010.9
20260507111553 13 0 0.0 19.3 0.00 0.03 0.00 66 1010.8
20260507110054 12 298 9.7 16.1 0.00 0.03 0.00 69 1010.9
20260507104552 11 360 11.3 20.9 0.00 0.03 0.00 68 1011.0
20260507103100 12 288 8.0 19.3 0.00 0.03 0.00 68 1011.0
20260507101551 11 280 12.9 24.1 0.00 0.03 0.00 68 1011.0
20260507100050 12 304 19.3 0.0 0.00 0.03 0.00 72 1011.0
20260507094557 11 360 4.8 27.4 0.00 0.03 0.00 73 1011.0
20260507093047 10 286 1.6 19.3 0.00 0.03 0.00 75 1011.0
20260507091551 10 279 8.0 17.7 0.00 0.03 0.00 75 1010.9
20260507090047 10 244 1.6 19.3 0.00 0.03 0.00 76 1010.8
20260507084547 10 299 3.2 14.5 0.00 0.03 0.00 75 1010.6
20260507083047 10 239 8.0 19.3 0.00 0.03 0.00 73 1010.5
20260507081541 10 275 4.8 17.7 0.00 0.03 0.00 72 1010.4
20260507080048 10 360 9.7 0.0 0.00 0.03 0.00 72 1010.3
20260507074549 10 258 11.3 27.4 0.00 0.03 0.00 70 1010.0
20260507073102 9 161 12.9 25.7 0.00 0.03 0.00 71 1009.9
20260507071547 10 232 4.8 24.1 0.00 0.03 0.00 73 1009.8
20260507070054 10 0 3.2 19.3 0.00 0.03 0.00 74 1009.7
20260507064555 10 360 4.8 20.9 0.00 0.03 0.00 74 1009.7
20260507063051 9 264 6.4 20.9 0.00 0.03 0.00 76 1009.6
20260507061549 9 179 1.6 16.1 0.00 0.03 0.00 76 1009.4
20260507060054 9 290 4.8 16.1 0.00 0.03 0.00 75 1009.3
20260507054551 9 0 4.8 6.4 0.00 0.03 0.00 75 1009.2
20260507053039 8 244 1.6 14.5 0.00 0.03 0.00 75 1009.0
20260507051544 8 0 0.0 14.5 0.00 0.03 0.00 75 1008.8
20260507050046 8 0 4.8 14.5 0.00 0.03 0.00 77 1008.7
20260507044557 7 226 0.0 12.9 0.00 0.03 0.00 79 1008.5
20260507043042 7 0 0.0 11.3 0.00 0.03 0.00 79 1008.4
20260507041546 7 0 0.0 8.0 0.00 0.03 0.00 78 1008.2
20260507040049 7 0 0.0 6.4 0.00 0.03 0.00 78 1008.1
20260507034545 7 0 0.0 6.4 0.00 0.03 0.00 78 1007.9
20260507033058 7 0 0.0 6.4 0.00 0.03 0.00 79 1007.9
20260507031557 7 0 0.0 6.4 0.00 0.03 0.00 79 1007.7
20260507024604 7 0 0.0 6.4 0.00 0.03 0.00 80 1007.7
20260507023046 7 0 0.0 4.8 0.00 0.03 0.00 81 1007.6
20260507021551 7 0 0.0 1.6 0.00 0.03 0.00 79 1007.7
20260507020056 7 0 0.0 0.0 0.00 0.03 0.00 79 1007.6
20260507014554 7 0 0.0 4.8 0.00 0.03 0.00 78 1007.5
20260507013053 7 0 0.0 0.0 0.00 0.03 0.00 76 1007.5
20260507011553 7 0 0.0 3.2 0.00 0.03 0.00 77 1007.3
20260507010048 7 0 0.0 4.8 0.00 0.03 0.00 77 1007.5
20260507004550 7 0 0.0 4.8 0.00 0.03 0.00 76 1007.5
20260507003049 8 193 0.0 3.2 0.00 0.03 0.00 76 1007.5
20260507001541 8 0 0.0 3.2 0.00 0.03 0.00 75 1007.4
20260507000040 8 0 0.0 3.2 0.00 0.03 0.00 76 1007.5
20260506234551 8 0 0.0 4.8 0.00 0.03 0.00 76 1007.5
20260506233048 8 237 0.0 6.4 0.00 0.03 0.00 76 1007.5
20260506231552 8 0 0.0 9.7 0.00 0.03 0.00 76 1007.4
20260506230043 8 0 0.0 11.3 0.00 0.03 0.00 76 1007.2
20260506224549 8 0 0.0 6.4 0.00 0.03 0.00 76 1007.1
20260506223042 8 163 3.2 11.3 0.00 0.03 0.00 75 1007.2
20260506221549 8 0 0.0 14.5 0.00 0.03 0.00 75 1007.1
20260506220052 8 282 1.6 19.3 0.00 0.03 0.00 75 1007.1
20260506214546 8 0 1.6 9.7 0.00 0.03 0.03 76 1006.9
20260506213052 8 0 0.0 8.0 0.00 0.03 0.03 76 1006.9
20260506211547 9 360 0.0 12.9 0.00 0.03 0.03 76 1006.8
20260506210050 9 0 0.0 12.9 0.00 0.03 0.03 75 1006.8
20260506204548 9 285 0.0 16.1 0.00 0.05 0.03 75 1006.7
20260506203044 9 203 4.8 20.9 0.00 0.05 0.03 74 1006.5
20260506201544 8 214 3.2 20.9 0.00 0.05 0.03 74 1006.2
20260506200047 9 165 1.6 19.3 0.00 0.05 0.03 73 1006.1
20260506194547 9 271 1.6 12.9 0.00 0.05 0.03 73 1006.2
20260506193048 9 163 0.0 14.5 0.00 0.05 0.03 73 1006.1
20260506191547 10 196 0.0 14.5 0.00 0.05 0.03 72 1006.1
20260506190053 10 237 0.0 9.7 0.00 0.05 0.03 71 1006.1
20260506184551 10 360 1.6 12.9 0.00 0.05 0.03 71 1005.9
20260506183047 10 0 3.2 17.7 0.00 0.05 0.03 70 1005.8
20260506181543 10 0 0.0 17.7 0.00 0.05 0.03 69 1005.8
20260506180054 10 0 1.6 25.7 0.00 0.05 0.03 69 1005.3
20260506174548 10 202 0.0 16.1 0.00 0.05 0.03 70 1005.3
20260506173121 10 0 4.8 20.9 0.00 0.05 0.03 70 1004.6
20260506171544 11 0 4.8 25.7 0.00 0.05 0.03 69 1004.4
20260506170047 11 259 11.3 30.6 0.00 0.05 0.03 68 1004.3
20260506164555 11 173 9.7 32.2 0.00 0.05 0.03 68 1004.2
20260506163058 11 360 11.3 32.2 0.00 0.05 0.03 67 1004.3
20260506161603 12 253 16.1 0.0 0.00 0.05 0.03 72 1004.1
20260506160047 12 0 8.0 25.7 0.00 0.05 0.03 73 1003.9
20260506154551 12 229 6.4 24.1 0.00 0.05 0.03 69 1003.9
20260506153056 16 16 12.9 59.5 0.00 0.05 0.03 57 1003.1
20260506151550 17 192 1.6 12.9 0.00 0.03 0.00 59 1002.2
20260506150046 17 169 1.6 14.5 0.00 0.03 0.00 60 1001.9
20260506144546 16 0 1.6 12.9 0.00 0.03 0.00 62 1002.1
20260506143045 15 0 0.0 6.4 0.00 0.03 0.00 67 1002.0
20260506141543 15 180 0.0 11.3 0.00 0.03 0.00 64 1002.2
20260506140049 15 232 4.8 14.5 0.00 0.03 0.00 66 1002.3
20260506134545 13 0 3.2 12.9 0.00 0.03 0.00 72 1002.7
20260506133047 15 179 1.6 9.7 0.00 0.03 0.00 66 1002.8
20260506131550 15 0 0.0 11.3 0.00 0.03 0.00 66 1002.4
20260506130058 15 0 0.0 0.0 0.00 0.00 0.00 60 1002.2
20260506124557 15 0 0.0 6.4 0.00 0.00 0.00 60 1001.9
20260506123048 16 0 0.0 6.4 0.00 0.00 0.00 58 1001.9
20260506121545 16 0 0.0 3.2 0.00 0.00 0.00 58 1002.0
20260506120049 16 58 0.0 11.3 0.00 0.00 0.00 57 1002.0
20260506114550 16 0 4.8 16.1 0.00 0.00 0.00 58 1002.0